This is the latest recevied weather packets stored in our database for station/object SP9KB-13. If no packets are shown the sender has not sent any weather packets the latest 1 day(s).
| Time | Temp. | Humidity | Pressure | Rain* | Wind** | Luminosity | Snow |
|---|---|---|---|---|---|---|---|
| 1778087085 | 20° C | 49% | 990.3 hPa | 0 mm | - | - | - |
| 1778086484 | 20.56° C | 49% | 990 hPa | 0 mm | - | - | - |
| 1778086183 | 20.56° C | 49% | 990 hPa | 0 mm | - | - | - |
| 1778085582 | 21.11° C | 47% | 990 hPa | 0 mm | - | - | - |
| 1778084981 | 21.11° C | 47% | 990 hPa | 0 mm | - | - | - |
| 1778084680 | 21.11° C | 46% | 990 hPa | 0 mm | - | - | - |
| 1778084079 | 21.67° C | 45% | 990 hPa | 0 mm | - | - | - |
| 1778083478 | 22.78° C | 43% | 989.9 hPa | 0 mm | - | - | - |
| 1778082877 | 23.89° C | 42% | 990 hPa | 0 mm | - | - | - |
| 1778082276 | 23.33° C | 42% | 989.7 hPa | 0 mm | - | - | - |
| 1778081374 | 23.33° C | 42% | 989.8 hPa | 0 mm | - | - | - |
| 1778080172 | 23.33° C | 41% | 990.2 hPa | 0 mm | - | - | - |
| 1778079571 | 23.89° C | 41% | 990.3 hPa | 0 mm | - | - | - |
| 1778078970 | 23.33° C | 40% | 990.2 hPa | 0 mm | - | - | - |
| 1778078068 | 23.89° C | 43% | 990.4 hPa | 0 mm | - | - | - |
| 1778077467 | 24.44° C | 39% | 990.5 hPa | 0 mm | - | - | - |
| 1778076565 | 23.33° C | 41% | 990.5 hPa | 0 mm | - | - | - |
| 1778076264 | 23.33° C | 41% | 990.6 hPa | 0 mm | - | - | - |
| 1778075663 | 23.89° C | 40% | 990.7 hPa | 0 mm | - | - | - |
| 1778073860 | 23.89° C | 38% | 990.6 hPa | 0 mm | - | - | - |
| 1778073259 | 23.89° C | 39% | 990.9 hPa | 0 mm | - | - | - |
| 1778072357 | 23.89° C | 38% | 990.6 hPa | 0 mm | - | - | - |
| 1778071756 | 23.89° C | 37% | 990.7 hPa | 0 mm | - | - | - |
| 1778071155 | 23.89° C | 38% | 990.8 hPa | 0 mm | - | - | - |
| 1778070854 | 24.44° C | 38% | 990.7 hPa | 0 mm | - | - | - |
* Rain latest hour (hover to see other rain measurements)
** Current wind speed in m/s (hover to see current wind gust speed)